• In Belarus
  • List of Countries
  • For 7 days
  • Water Temperature
  • Satellite Maps
  • Weather Map
  • Weather Widgets
  • user-avatar
    Login

    Hourly Weather Klimatino

    Today, 21 March, Thursday

    Time Temperature Precipitation Wind Pressure Humidity
    00:00 -2°C° 0 mm 2 mps 749 mmHg 92%
    01:00 -3°C° 0 mm 2 mps 749 mmHg 92%
    02:00 -3°C° 0 mm 2 mps 748 mmHg 92%
    03:00 -3°C° 0 mm 2 mps 748 mmHg 92%
    04:00 -3°C° 0 mm 2 mps 748 mmHg 92%
    05:00 -3°C° 0 mm 2 mps 747 mmHg 92%
    06:00 -2°C° 0.1 mm 3 mps 747 mmHg 91%
    07:00 -1°C° 0.1 mm 3 mps 747 mmHg 90%
    08:00 0°C° 0.1 mm 3 mps 747 mmHg 88%
    09:00 0°C° 0.1 mm 3 mps 747 mmHg 87%
    10:00 +1°C° 0.1 mm 3 mps 748 mmHg 85%
    11:00 +2°C° 0.1 mm 3 mps 748 mmHg 83%
    12:00 +2°C° 0.1 mm 3 mps 748 mmHg 82%
    13:00 +2°C° 0.1 mm 3 mps 748 mmHg 80%
    14:00 +2°C° 0.1 mm 3 mps 748 mmHg 78%
    15:00 +1°C° 0 mm 3 mps 748 mmHg 81%
    16:00 +2°C° 0 mm 2 mps 748 mmHg 84%
    17:00 +2°C° 0 mm 2 mps 748 mmHg 86%
    18:00 +1°C° 0 mm 2 mps 748 mmHg 88%
    19:00 +1°C° 0 mm 2 mps 748 mmHg 90%
    20:00 +1°C° 0 mm 2 mps 748 mmHg 92%
    21:00 -1°C° 0 mm 2 mps 748 mmHg 93%
    22:00 -1°C° 0 mm 2 mps 747 mmHg 93%
    23:00 -1°C° 0 mm 2 mps 747 mmHg 94%

    Tomorrow, 22 March, Friday

    Time Temperature Precipitation Wind Pressure Humidity
    00:00 -1°C° 0 mm 2 mps 746 mmHg 93%
    01:00 -1°C° 0 mm 3 mps 745 mmHg 92%
    02:00 -1°C° 0 mm 3 mps 744 mmHg 92%
    03:00 0°C° 0.7 mm 3 mps 743 mmHg 91%
    04:00 -1°C° 0.7 mm 4 mps 742 mmHg 91%
    05:00 0°C° 0.7 mm 4 mps 741 mmHg 91%
    06:00 0°C° 1.2 mm 5 mps 740 mmHg 89%
    07:00 -1°C° 1.2 mm 6 mps 740 mmHg 86%
    08:00 -1°C° 1.2 mm 7 mps 740 mmHg 84%
    09:00 -1°C° 0.2 mm 7 mps 740 mmHg 78%
    10:00 -2°C° 0.2 mm 7 mps 741 mmHg 73%
    11:00 -2°C° 0.2 mm 7 mps 742 mmHg 68%
    12:00 -2°C° 0 mm 7 mps 742 mmHg 70%
    13:00 -2°C° 0 mm 7 mps 743 mmHg 71%
    14:00 -2°C° 0 mm 6 mps 743 mmHg 73%
    15:00 -3°C° 0.1 mm 6 mps 743 mmHg 76%
    16:00 -3°C° 0.1 mm 6 mps 743 mmHg 79%
    17:00 -2°C° 0.1 mm 5 mps 744 mmHg 82%
    18:00 -2°C° 0.2 mm 5 mps 744 mmHg 82%
    19:00 -2°C° 0.2 mm 5 mps 745 mmHg 82%
    20:00 -2°C° 0.2 mm 5 mps 745 mmHg 81%
    21:00 -2°C° 0 mm 5 mps 745 mmHg 82%
    22:00 -2°C° 0 mm 5 mps 746 mmHg 83%
    23:00 -2°C° 0 mm 5 mps 746 mmHg 84%

    Day after tomorrow, 23 March, Saturday

    Time Temperature Precipitation Wind Pressure Humidity
    00:00 -2°C° 0 mm 5 mps 747 mmHg 84%
    01:00 -2°C° 0 mm 4 mps 748 mmHg 85%
    02:00 -2°C° 0 mm 4 mps 748 mmHg 85%
    03:00 -2°C° 0 mm 4 mps 749 mmHg 87%
    04:00 -1°C° 0 mm 3 mps 750 mmHg 90%
    05:00 -1°C° 0 mm 3 mps 750 mmHg 92%
    06:00 -1°C° 0 mm 3 mps 751 mmHg 91%
    07:00 -1°C° 0 mm 2 mps 751 mmHg 91%
    08:00 +1°C° 0 mm 2 mps 752 mmHg 90%
    09:00 +1°C° 0 mm 2 mps 752 mmHg 87%
    10:00 +3°C° 0 mm 1 mps 751 mmHg 84%
    11:00 +4°C° 0 mm 1 mps 751 mmHg 81%
    12:00 +4°C° 0 mm 1 mps 751 mmHg 80%
    13:00 +4°C° 0 mm 1 mps 751 mmHg 79%
    14:00 +4°C° 0 mm 1 mps 750 mmHg 79%
    15:00 +3°C° 0 mm 1 mps 750 mmHg 81%
    16:00 +2°C° 0 mm 2 mps 749 mmHg 82%
    17:00 +2°C° 0 mm 2 mps 749 mmHg 84%
    18:00 +2°C° 0 mm 2 mps 749 mmHg 85%
    19:00 0°C° 0 mm 3 mps 748 mmHg 85%
    20:00 0°C° 0 mm 3 mps 748 mmHg 86%
    21:00 0°C° 0.2 mm 3 mps 747 mmHg 86%
    22:00 0°C° 0.2 mm 3 mps 746 mmHg 86%
    23:00 -1°C° 0.2 mm 4 mps 745 mmHg 86%

    24 March, Sunday

    Time Temperature Precipitation Wind Pressure Humidity
    00:00 0°C° 0.9 mm 3 mps 745 mmHg 88%
    01:00 0°C° 0.9 mm 3 mps 744 mmHg 90%
    02:00 0°C° 0.9 mm 3 mps 744 mmHg 91%
    03:00 0°C° 0.1 mm 3 mps 744 mmHg 92%
    04:00 0°C° 0.1 mm 3 mps 744 mmHg 93%
    05:00 +1°C° 0.1 mm 3 mps 744 mmHg 93%
    06:00 0°C° 0 mm 3 mps 744 mmHg 89%
    07:00 0°C° 0 mm 3 mps 744 mmHg 85%
    08:00 0°C° 0 mm 3 mps 744 mmHg 81%
    09:00 0°C° 0 mm 4 mps 745 mmHg 78%
    10:00 +1°C° 0 mm 5 mps 745 mmHg 75%
    11:00 +2°C° 0 mm 5 mps 745 mmHg 72%
    12:00 +2°C° 0.1 mm 5 mps 745 mmHg 69%
    13:00 +2°C° 0.1 mm 5 mps 745 mmHg 67%
    14:00 +2°C° 0.1 mm 5 mps 745 mmHg 64%
    15:00 +1°C° 0 mm 4 mps 745 mmHg 67%
    16:00 +2°C° 0 mm 3 mps 745 mmHg 70%
    17:00 +2°C° 0 mm 2 mps 745 mmHg 73%
    18:00 +1°C° 0.1 mm 2 mps 745 mmHg 77%
    19:00 +1°C° 0.1 mm 2 mps 745 mmHg 80%
    20:00 -1°C° 0.1 mm 2 mps 745 mmHg 84%
    21:00 -1°C° 0 mm 2 mps 745 mmHg 86%
    22:00 -2°C° 0 mm 3 mps 745 mmHg 88%
    23:00 -4°C° 0 mm 3 mps 745 mmHg 90%

    25 March, Monday

    Time Temperature Precipitation Wind Pressure Humidity
    00:00 -4°C° 0 mm 3 mps 745 mmHg 91%
    01:00 -5°C° 0 mm 3 mps 746 mmHg 92%
    02:00 -4°C° 0 mm 2 mps 746 mmHg 92%
    03:00 -4°C° 0 mm 2 mps 746 mmHg 92%
    04:00 -5°C° 0 mm 2 mps 746 mmHg 93%
    05:00 -5°C° 0 mm 2 mps 746 mmHg 93%
    06:00 -4°C° 0 mm 2 mps 746 mmHg 88%
    07:00 -3°C° 0 mm 2 mps 746 mmHg 84%
    08:00 -3°C° 0 mm 2 mps 746 mmHg 80%
    09:00 -2°C° 0 mm 2 mps 746 mmHg 71%
    10:00 +1°C° 0 mm 2 mps 746 mmHg 63%
    11:00 +2°C° 0 mm 2 mps 746 mmHg 55%
    12:00 +2°C° 0 mm 2 mps 746 mmHg 54%
    13:00 +3°C° 0 mm 1 mps 745 mmHg 52%
    14:00 +4°C° 0 mm 1 mps 745 mmHg 51%
    15:00 +3°C° 0 mm 1 mps 744 mmHg 56%
    16:00 +3°C° 0 mm 1 mps 744 mmHg 61%
    17:00 +2°C° 0 mm 1 mps 744 mmHg 66%
    18:00 +1°C° 0 mm 1 mps 743 mmHg 71%
    19:00 0°C° 0 mm 1 mps 743 mmHg 75%
    20:00 -3°C° 0 mm 2 mps 743 mmHg 79%
    21:00 -3°C° 0 mm 2 mps 743 mmHg 80%
    22:00 -3°C° 0 mm 2 mps 742 mmHg 81%
    23:00 -3°C° 0 mm 2 mps 742 mmHg 82%

    26 March, Tuesday

    Time Temperature Precipitation Wind Pressure Humidity
    00:00 -3°C° 0 mm 2 mps 742 mmHg 82%
    01:00 -3°C° 0 mm 2 mps 742 mmHg 82%
    02:00 -2°C° 0 mm 3 mps 741 mmHg 81%
    03:00 -4°C° 0 mm 3 mps 741 mmHg 83%
    04:00 -4°C° 0 mm 3 mps 741 mmHg 85%
    05:00 -4°C° 0 mm 3 mps 741 mmHg 87%
    06:00 -2°C° 0 mm 3 mps 741 mmHg 85%
    07:00 -2°C° 0 mm 3 mps 741 mmHg 83%
    08:00 -1°C° 0 mm 3 mps 741 mmHg 82%
    09:00 0°C° 0 mm 3 mps 741 mmHg 78%
    10:00 +1°C° 0 mm 3 mps 741 mmHg 75%
    11:00 +1°C° 0 mm 4 mps 741 mmHg 71%
    12:00 +3°C° 0.1 mm 4 mps 741 mmHg 71%
    13:00 +3°C° 0.1 mm 4 mps 741 mmHg 71%
    14:00 +3°C° 0.1 mm 4 mps 741 mmHg 71%
    15:00 +1°C° 0.1 mm 4 mps 741 mmHg 74%
    16:00 +1°C° 0.1 mm 4 mps 741 mmHg 77%
    17:00 0°C° 0.1 mm 4 mps 742 mmHg 80%
    18:00 -1°C° 0 mm 4 mps 742 mmHg 81%
    19:00 -2°C° 0 mm 4 mps 742 mmHg 82%
    20:00 -2°C° 0 mm 4 mps 743 mmHg 83%
    21:00 -3°C° 0 mm 4 mps 743 mmHg 82%
    22:00 -3°C° 0 mm 4 mps 743 mmHg 81%
    23:00 -3°C° 0 mm 4 mps 744 mmHg 79%
    Show more